| time (UTC) | temp F | wind direction | speed MPH | gust MPH | rain 1hr in | rain 24hr in | rain mn in | humidity % | barometer mb |
| 20260507045822 | 44 | 119 | 0.0 | 4.0 | 0.00 | 0.12 | 0.02 | 94 | 1011.7 |
| 20260507044822 | 44 | 130 | 0.0 | 3.0 | 0.00 | 0.13 | 0.02 | 94 | 1011.5 |
| 20260507043823 | 44 | 87 | 0.0 | 3.0 | 0.00 | 0.13 | 0.02 | 94 | 1011.5 |
| 20260507042823 | 44 | 350 | 0.0 | 4.0 | 0.00 | 0.13 | 0.02 | 94 | 1011.4 |
| 20260507041822 | 44 | 24 | 0.0 | 3.0 | 0.00 | 0.13 | 0.02 | 94 | 1011.2 |
| 20260507040823 | 44 | 279 | 1.0 | 6.0 | 0.00 | 0.13 | 0.02 | 94 | 1011.2 |
| 20260507035822 | 44 | 296 | 1.0 | 4.0 | 0.00 | 0.13 | 0.02 | 94 | 1011.1 |
| 20260507034823 | 44 | 272 | 0.0 | 3.0 | 0.00 | 0.13 | 0.02 | 94 | 1011.1 |
| 20260507033822 | 44 | 259 | 0.0 | 4.0 | 0.00 | 0.13 | 0.02 | 94 | 1011.1 |
| 20260507032822 | 44 | 307 | 1.0 | 7.0 | 0.01 | 0.13 | 0.02 | 94 | 1011.0 |
| 20260507031822 | 44 | 355 | 0.0 | 3.0 | 0.01 | 0.13 | 0.02 | 94 | 1011.1 |
| 20260507031323 | 44 | 97 | 0.0 | 2.0 | 0.01 | 0.13 | 0.02 | 94 | 1011.0 |
| 20260507030323 | 44 | 38 | 0.0 | 5.0 | 0.01 | 0.13 | 0.02 | 94 | 1010.9 |
| 20260507024822 | 44 | 92 | 0.0 | 3.0 | 0.01 | 0.13 | 0.02 | 94 | 1011.0 |
| 20260507023822 | 44 | 319 | 1.0 | 6.0 | 0.01 | 0.13 | 0.02 | 94 | 1011.1 |
| 20260507022823 | 44 | 103 | 0.0 | 3.0 | 0.00 | 0.12 | 0.01 | 94 | 1011.0 |
| 20260507021823 | 44 | 270 | 0.0 | 2.0 | 0.00 | 0.12 | 0.01 | 94 | 1010.9 |
| 20260507020819 | 44 | 136 | 0.0 | 5.0 | 0.00 | 0.12 | 0.01 | 94 | 1010.8 |
| 20260507015816 | 44 | 33 | 1.0 | 4.0 | 0.00 | 0.12 | 0.01 | 94 | 1010.7 |
| 20260507014816 | 44 | 55 | 1.0 | 5.0 | 0.00 | 0.12 | 0.01 | 94 | 1010.6 |
| 20260507013817 | 44 | 86 | 0.0 | 3.0 | 0.00 | 0.13 | 0.01 | 94 | 1010.6 |
| 20260507012816 | 44 | 119 | 1.0 | 5.0 | 0.00 | 0.13 | 0.01 | 94 | 1010.5 |
| 20260507011816 | 44 | 40 | 1.0 | 5.0 | 0.00 | 0.13 | 0.01 | 94 | 1010.5 |
| 20260507011318 | 44 | 71 | 1.0 | 3.0 | 0.00 | 0.13 | 0.01 | 94 | 1010.4 |
| 20260507005817 | 45 | 65 | 0.0 | 4.0 | 0.00 | 0.13 | 0.01 | 94 | 1010.3 |
| 20260507004816 | 45 | 232 | 0.0 | 3.0 | 0.00 | 0.13 | 0.01 | 94 | 1010.3 |
| 20260507003816 | 45 | 227 | 0.0 | 4.0 | 0.00 | 0.13 | 0.01 | 94 | 1010.1 |
| 20260507002816 | 45 | 280 | 0.0 | 6.0 | 0.00 | 0.13 | 0.01 | 94 | 1010.0 |
| 20260507001816 | 45 | 134 | 0.0 | 3.0 | 0.00 | 0.13 | 0.01 | 94 | 1010.0 |
| 20260507000817 | 45 | 223 | 0.0 | 5.0 | 0.00 | 0.13 | 0.01 | 94 | 1010.0 |
| 20260506235817 | 45 | 90 | 0.0 | 3.0 | 0.00 | 0.13 | 0.01 | 94 | 1010.0 |
| 20260506234816 | 45 | 38 | 1.0 | 5.0 | 0.00 | 0.13 | 0.01 | 94 | 1009.9 |
| 20260506233816 | 45 | 231 | 1.0 | 7.0 | 0.01 | 0.13 | 0.01 | 94 | 1009.8 |
| 20260506232816 | 45 | 327 | 0.0 | 4.0 | 0.01 | 0.13 | 0.01 | 94 | 1009.9 |
| 20260506231815 | 45 | 139 | 0.0 | 3.0 | 0.01 | 0.13 | 0.01 | 94 | 1009.8 |
| 20260506231317 | 45 | 64 | 0.0 | 3.0 | 0.01 | 0.13 | 0.01 | 94 | 1009.8 |
| 20260506225817 | 45 | 59 | 0.0 | 3.0 | 0.01 | 0.13 | 0.01 | 94 | 1009.9 |
| 20260506224821 | 45 | 98 | 0.0 | 3.0 | 0.01 | 0.12 | 0.00 | 94 | 1009.8 |
| 20260506224816 | 45 | 86 | 1.0 | 7.0 | 0.02 | 0.13 | 0.01 | 94 | 1009.8 |
| 20260506222816 | 45 | 43 | 0.0 | 4.0 | 0.01 | 0.12 | 0.00 | 94 | 1009.7 |
| 20260506221810 | 45 | 290 | 1.0 | 6.0 | 0.01 | 0.12 | 0.00 | 94 | 1009.6 |
| 20260506221312 | 45 | 49 | 0.0 | 4.0 | 0.01 | 0.12 | 0.00 | 94 | 1009.5 |
| 20260506215809 | 45 | 51 | 0.0 | 0.0 | 0.01 | 0.13 | 0.13 | 94 | 1009.4 |
| 20260506214808 | 45 | 101 | 0.0 | 4.0 | 0.00 | 0.12 | 0.12 | 94 | 1009.4 |
| 20260506213806 | 45 | 315 | 1.0 | 6.0 | 0.00 | 0.12 | 0.12 | 94 | 1009.4 |
| 20260506212807 | 45 | 145 | 1.0 | 6.0 | 0.00 | 0.12 | 0.12 | 94 | 1009.4 |
| 20260506211807 | 45 | 207 | 1.0 | 7.0 | 0.00 | 0.12 | 0.12 | 94 | 1009.3 |
| 20260506210807 | 45 | 329 | 1.0 | 6.0 | 0.00 | 0.13 | 0.12 | 94 | 1009.3 |
| 20260506205804 | 45 | 76 | 1.0 | 4.0 | 0.00 | 0.13 | 0.12 | 94 | 1009.0 |
| 20260506204801 | 45 | 234 | 1.0 | 3.0 | 0.01 | 0.14 | 0.12 | 94 | 1009.0 |
| 20260506203801 | 45 | 206 | 1.0 | 3.0 | 0.01 | 0.15 | 0.12 | 94 | 1008.9 |
| 20260506202801 | 45 | 72 | 1.0 | 6.0 | 0.01 | 0.16 | 0.12 | 93 | 1008.9 |
| 20260506201801 | 45 | 205 | 1.0 | 4.0 | 0.01 | 0.18 | 0.12 | 93 | 1008.7 |
| 20260506200801 | 46 | 105 | 1.0 | 4.0 | 0.01 | 0.20 | 0.12 | 94 | 1008.7 |
| 20260506195801 | 46 | 86 | 1.0 | 7.0 | 0.02 | 0.21 | 0.12 | 94 | 1008.6 |
| 20260506194801 | 46 | 57 | 1.0 | 5.0 | 0.01 | 0.23 | 0.11 | 94 | 1008.5 |
| 20260506193801 | 46 | 94 | 0.0 | 3.0 | 0.01 | 0.25 | 0.11 | 94 | 1008.5 |
| 20260506192801 | 46 | 91 | 0.0 | 3.0 | 0.01 | 0.27 | 0.11 | 94 | 1008.4 |
| 20260506191754 | 46 | 284 | 0.0 | 4.0 | 0.01 | 0.28 | 0.11 | 93 | 1008.2 |
| 20260506190755 | 46 | 274 | 0.0 | 4.0 | 0.01 | 0.30 | 0.11 | 93 | 1008.1 |
| 20260506185755 | 46 | 265 | 0.0 | 3.0 | 0.00 | 0.31 | 0.10 | 93 | 1008.0 |
| 20260506184754 | 46 | 45 | 0.0 | 3.0 | 0.00 | 0.34 | 0.10 | 93 | 1007.9 |
| 20260506184256 | 46 | 254 | 0.0 | 3.0 | 0.00 | 0.38 | 0.10 | 93 | 1007.8 |
| 20260506182756 | 46 | 256 | 1.0 | 3.0 | 0.00 | 0.39 | 0.10 | 93 | 1007.8 |
| 20260506181755 | 46 | 277 | 1.0 | 4.0 | 0.00 | 0.40 | 0.10 | 93 | 1007.8 |
| 20260506180756 | 46 | 252 | 1.0 | 6.0 | 0.00 | 0.41 | 0.10 | 93 | 1007.6 |
| 20260506180256 | 46 | 218 | 1.0 | 5.0 | 0.00 | 0.42 | 0.10 | 93 | 1007.6 |
| 20260506174753 | 46 | 257 | 1.0 | 7.0 | 0.00 | 0.43 | 0.10 | 93 | 1007.5 |
| 20260506173753 | 46 | 13 | 1.0 | 9.0 | 0.00 | 0.46 | 0.10 | 93 | 1007.4 |
| 20260506172753 | 47 | 229 | 1.0 | 7.0 | 0.00 | 0.46 | 0.10 | 93 | 1007.4 |
| 20260506171753 | 47 | 228 | 1.0 | 4.0 | 0.00 | 0.46 | 0.10 | 93 | 1007.4 |
| 20260506171253 | 47 | 257 | 1.0 | 5.0 | 0.00 | 0.47 | 0.10 | 93 | 1007.2 |
| 20260506165753 | 47 | 220 | 1.0 | 5.0 | 0.00 | 0.47 | 0.10 | 93 | 1007.3 |
| 20260506164753 | 47 | 234 | 0.0 | 2.0 | 0.00 | 0.48 | 0.10 | 93 | 1007.3 |
| 20260506163753 | 47 | 5 | 1.0 | 4.0 | 0.00 | 0.48 | 0.10 | 93 | 1007.2 |
| 20260506162750 | 47 | 341 | 1.0 | 4.0 | 0.00 | 0.49 | 0.10 | 93 | 1007.2 |
| 20260506161750 | 48 | 304 | 1.0 | 5.0 | 0.00 | 0.52 | 0.10 | 93 | 1007.1 |
| 20260506160751 | 48 | 283 | 1.0 | 6.0 | 0.00 | 0.55 | 0.10 | 93 | 1007.1 |
| 20260506155751 | 48 | 232 | 0.0 | 5.0 | 0.00 | 0.59 | 0.10 | 93 | 1007.1 |
| 20260506154751 | 48 | 196 | 1.0 | 9.0 | 0.00 | 0.60 | 0.10 | 93 | 1007.2 |
| 20260506154251 | 48 | 103 | 1.0 | 5.0 | 0.00 | 0.61 | 0.10 | 93 | 1006.9 |
| 20260506153252 | 48 | 52 | 0.0 | 3.0 | 0.00 | 0.62 | 0.10 | 93 | 1006.9 |
| 20260506151751 | 48 | 223 | 0.0 | 3.0 | 0.00 | 0.64 | 0.10 | 93 | 1006.6 |
| 20260506150750 | 48 | 238 | 1.0 | 5.0 | 0.00 | 0.65 | 0.10 | 93 | 1006.6 |
| 20260506145745 | 48 | 248 | 1.0 | 5.0 | 0.00 | 0.65 | 0.10 | 93 | 1006.5 |
| 20260506144745 | 49 | 156 | 1.0 | 6.0 | 0.00 | 0.67 | 0.10 | 93 | 1006.5 |
| 20260506143749 | 49 | 292 | 0.0 | 7.0 | 0.00 | 0.67 | 0.10 | 93 | 1006.5 |
| 20260506143744 | 49 | 94 | 1.0 | 6.0 | 0.00 | 0.67 | 0.10 | 94 | 1006.4 |
| 20260506141745 | 49 | 118 | 1.0 | 3.0 | 0.00 | 0.67 | 0.10 | 93 | 1006.4 |
| 20260506141246 | 49 | 97 | 1.0 | 4.0 | 0.00 | 0.67 | 0.10 | 93 | 1006.4 |
| 20260506135745 | 49 | 302 | 2.0 | 12.0 | 0.00 | 0.67 | 0.10 | 93 | 1006.4 |
| 20260506134745 | 49 | 278 | 1.0 | 8.0 | 0.00 | 0.67 | 0.10 | 93 | 1006.4 |
| 20260506133745 | 49 | 291 | 1.0 | 6.0 | 0.00 | 0.68 | 0.10 | 93 | 1006.5 |
| 20260506132740 | 49 | 42 | 1.0 | 7.0 | 0.00 | 0.69 | 0.10 | 93 | 1006.3 |
| 20260506131741 | 49 | 225 | 1.0 | 9.0 | 0.01 | 0.69 | 0.10 | 93 | 1006.3 |
| 20260506130741 | 50 | 230 | 0.0 | 12.0 | 0.01 | 0.69 | 0.10 | 94 | 1006.1 |
| 20260506125741 | 50 | 195 | 1.0 | 8.0 | 0.02 | 0.69 | 0.10 | 94 | 1005.9 |
| 20260506124741 | 50 | 213 | 1.0 | 8.0 | 0.02 | 0.69 | 0.10 | 94 | 1005.9 |
| 20260506123740 | 50 | 31 | 1.0 | 7.0 | 0.02 | 0.69 | 0.10 | 94 | 1005.9 |
| 20260506123242 | 50 | 321 | 1.0 | 6.0 | 0.02 | 0.69 | 0.10 | 94 | 1005.8 |
| 20260506121740 | 50 | 300 | 1.0 | 4.0 | 0.01 | 0.69 | 0.09 | 94 | 1005.7 |
| 20260506120735 | 50 | 242 | 2.0 | 8.0 | 0.01 | 0.69 | 0.09 | 94 | 1006.0 |
| 20260506120233 | 50 | 283 | 3.0 | 10.0 | 0.00 | 0.68 | 0.09 | 94 | 1005.8 |
| 20260506114732 | 51 | 247 | 1.0 | 5.0 | 0.01 | 0.68 | 0.09 | 94 | 1005.6 |
| 20260506113733 | 51 | 262 | 2.0 | 8.0 | 0.01 | 0.68 | 0.09 | 94 | 1005.6 |
| 20260506112732 | 51 | 296 | 1.0 | 8.0 | 0.02 | 0.68 | 0.09 | 94 | 1005.4 |
| 20260506112233 | 51 | 268 | 2.0 | 10.0 | 0.02 | 0.68 | 0.09 | 94 | 1005.4 |
| 20260506110732 | 51 | 227 | 2.0 | 9.0 | 0.02 | 0.68 | 0.09 | 94 | 1005.4 |
| 20260506105732 | 51 | 245 | 1.0 | 6.0 | 0.02 | 0.68 | 0.09 | 94 | 1005.4 |
| 20260506104732 | 51 | 257 | 1.0 | 7.0 | 0.02 | 0.67 | 0.08 | 94 | 1005.4 |
| 20260506103732 | 51 | 269 | 2.0 | 8.0 | 0.02 | 0.67 | 0.08 | 94 | 1005.5 |
| 20260506102733 | 51 | 247 | 1.0 | 4.0 | 0.01 | 0.66 | 0.07 | 94 | 1005.4 |
| 20260506101730 | 51 | 271 | 1.0 | 6.0 | 0.02 | 0.66 | 0.07 | 94 | 1005.3 |
| 20260506100728 | 51 | 262 | 0.0 | 4.0 | 0.02 | 0.66 | 0.07 | 94 | 1005.2 |
| 20260506095729 | 51 | 246 | 2.0 | 7.0 | 0.02 | 0.66 | 0.07 | 94 | 1005.2 |
| 20260506094728 | 51 | 234 | 1.0 | 4.0 | 0.01 | 0.65 | 0.06 | 94 | 1005.2 |
| 20260506093729 | 51 | 294 | 0.0 | 1.0 | 0.01 | 0.65 | 0.06 | 94 | 1005.0 |
| 20260506092726 | 50 | 250 | 0.0 | 3.0 | 0.01 | 0.65 | 0.06 | 94 | 1005.1 |
| 20260506091724 | 50 | 225 | 0.0 | 4.0 | 0.00 | 0.65 | 0.06 | 94 | 1005.0 |
| 20260506090723 | 50 | 264 | 0.0 | 3.0 | 0.00 | 0.65 | 0.06 | 94 | 1005.0 |
| 20260506085717 | 50 | 232 | 1.0 | 4.0 | 0.00 | 0.65 | 0.06 | 94 | 1005.0 |
| 20260506084717 | 50 | 257 | 0.0 | 4.0 | 0.00 | 0.65 | 0.06 | 94 | 1004.8 |
| 20260506083716 | 50 | 249 | 0.0 | 2.0 | 0.00 | 0.65 | 0.06 | 94 | 1004.7 |
| 20260506082716 | 50 | 259 | 1.0 | 4.0 | 0.00 | 0.65 | 0.06 | 94 | 1004.8 |
| 20260506081717 | 50 | 294 | 1.0 | 7.0 | 0.00 | 0.65 | 0.06 | 94 | 1004.8 |
| 20260506080716 | 50 | 265 | 1.0 | 5.0 | 0.00 | 0.65 | 0.06 | 94 | 1004.7 |
| 20260506072716 | 50 | 235 | 0.0 | 0.0 | 0.00 | 0.65 | 0.06 | 94 | 1004.7 |
| 20260506071717 | 49 | 229 | 0.0 | 2.0 | 0.00 | 0.65 | 0.06 | 94 | 1004.6 |
| 20260506070716 | 49 | 240 | 0.0 | 3.0 | 0.01 | 0.65 | 0.06 | 94 | 1004.5 |
| 20260506061717 | 49 | 244 | 0.0 | 3.0 | 0.01 | 0.65 | 0.06 | 94 | 1004.4 |
| 20260506061218 | 49 | 270 | 0.0 | 2.0 | 0.01 | 0.64 | 0.05 | 94 | 1004.4 |